COSMOS 1275 DEB, 12671

Orbit data source: Space-Track

COSMOS 1275 DEB, 12671 is space debris in LEO originally from a launch on Thu, 04 Jun 1981 UTC launched from the Plesetsk Missile And Space Complex (PKMTR). Debris objects in space refer to the collection of defunct objects orbiting the Earth. Examples of debris include non-operational satellites, rocket bodies, and fragments generated from explosions, collisions, or faulty payload assembly.

Loading next visibility...
Identifier
12671, 1981-053AB
Orbit
LEO
Country
Flag of CISCIS
Related business
Manufacturer
Unknown
Mission
Spacecraft
Bus & Motor
Unknown
Mass
Unknown
Launch date (UTC)
1981-06-04 (44 years ago)
Launch vehicle
Unknown
Launch site
Plesetsk Missile And Space Complex (PKMTR)
Object type
Payload
Rocket body
Debris
Shape & HBR
Unknown shape, 0.1 m
Radar Cross Section
Small (<0.1 m²)

Expand to show TLE details & history
Last TLE update: 1 day ago

TLE from 1 day ago
0 COSMOS 1275 DEB
1 12671U 81053AB  25301.60500787  .00003017  00000-0  16689-2 0  9991
2 12671  82.9092  12.4997 0020367 222.4152 137.5451 14.10959337247187
Epoch: 2025-10-28T14:31Z
TLE epoch observation values (Epoch: 2025-10-28T14:31:12.679Z)
Latitude
-0.00004°
Longitude
117.50676°
Altitude
869.926 km
Speed
7.412 km/s
True Right ascension
00h 49m 59s
True Declination
0° 00' 00"
Sunlit
Object was in full shadow at epoch
Visualization orbit readout
Latitude
Unknown
Longitude
Unknown
Altitude
Unknown
Speed
Unknown
Apparent Right ascension
Unknown
Apparent Declination
Unknown
Sunlit
N/A
Visualization observer readout
Local Sidereal Time
11:00:28
Azimuth
Unknown
Elevation
Unknown
Doppler factor
Unknown
Orbital elements
Apogee altitude
867.919 km
Perigee altitude
838.463 km
Semi-major axis
7,231.328 km
Eccentricity
0.00204
Inclination
82.9092°
RAAN
12.4997°
Arg. of periapsis
222.4152°
True anomaly
137.70234°
Mean anomaly
137.5451°
Eccentric anomaly
137.62375°
Mean motion
3.52952 °/min
Orbital period
102 mins
BSTAR
0.0016689
Loading maneuver chart data...
Computing Atmospheric mass density...
Loading historical data...
Loading historical data...
Loading historical data...
Loading historical data...
Loading historical data...
Loading historical data...
Loading historical data...

Documentation

Showing up to 5 results
|